Regional Weather Roundup
Issued by NWS

Home | Current Version | Previous Version | Graphics & Text | Print | Product List | Glossary On
Versions: 1 2 3 4 5 6 7 8 9 10 11 12 13 14 15 16 17 18 19 20 21 22 23 24 25 26 27 28 29 30 31 32 33 34 35 36 37 38 39 40 41 42 43 44 45 46 47 48 49 50
000
ASUS43 KIND 011409
RWRIN

WEATHER ROUNDUP FOR INDIANA
NATIONAL WEATHER SERVICE INDIANAPOLIS IN
900 AM EST SUN MAR 01 2015

NOTE: "FAIR" INDICATES FEW OR NO CLOUDS BELOW 12,000 FEET WITH NO
SIGNIFICANT WEATHER AND/OR OBSTRUCTIONS TO VISIBILITY.

* - STATION DOES NOT REPORT WEATHER SUCH AS PRECIPITATION OR FOG.

+ - STATION NOT QUALITY CONTROLLED BY THE NATIONAL WEATHER SERVICE.
    USE DATA WITH CAUTION...ESPECIALLY DEWPOINT AND RELATIVE
    HUMIDITY OBSERVATIONS.

INZ001>003-010>013-019-020-011500-
NORTHWEST INDIANA

CITY           SKY/WX    TMP DP  RH WIND       PRES   REMARKS
GARY /AIRPORT/ CLOUDY    21  14  73 SE3       30.39R
KNOX *+          N/A     19  10  68 CALM      30.38S
LA PORTE +     CLOUDY    19  16  88 E3        30.38R
MICHIGAN CITY+ CLOUDY    19  12  73 CALM      30.39S
MONTICELLO +   LGT SNOW  20  18  93 CALM      30.37S VSB 1
RENSSELAER +   LGT SNOW  21  21 100 CALM      30.38S VSB 1
VALPARAISO     LGT SNOW  18  14  84 E3        30.38R FOG

$$

LMZ046-743>745-011500-
SOUTHERN LAKE MICHIGAN

STATION/POSITION TIME  TEMP WIND        PRES
                       AIR  DIR/SP/G
                 (UTC) (F)  (DEG/KT/KT) (MB)
MICHIGAN CITY    1400   17  120/  6/  7   N/A

$$

INZ004-005-014>016-021>024-011500-
NORTH CENTRAL INDIANA

CITY           SKY/WX    TMP DP  RH WIND       PRES   REMARKS
ELKHART        LGT SNOW  18  10  73 CALM      30.39S
GOSHEN         LGT SNOW  18  14  84 E3        30.37S VSB 1
LOGANSPORT +   LGT SNOW  21  19  93 CALM      30.38S VSB 3/4
PERU/GRISSOM   SNOW      20  18  91 NE3       30.36S VSB 1/2
ROCHESTER +    LGT SNOW  23  21  93 CALM      30.38R VSB 1
SOUTH BEND     CLOUDY    18  13  80 CALM      30.39R HAZE
WARSAW +       LGT SNOW  19  18  93 CALM      30.37S

$$

INZ006>009-017-018-025>027-011500-
NORTHEAST INDIANA

CITY           SKY/WX    TMP DP  RH WIND       PRES   REMARKS
ANGOLA *+      CLOUDY    16   7  67 CALM      30.36S
AUBURN +       LGT SNOW  19  14  79 CALM      30.38S
FORT WAYNE     LGT SNOW  18  15  88 E3        30.38F VSB 1
HUNTINGTON +   LGT SNOW  18  13  81 CALM      30.37S VSB 1

$$

INZ028-029-035-036-043>045-051>053-011500-
WEST CENTRAL INDIANA

CITY           SKY/WX    TMP DP  RH WIND       PRES   REMARKS
CRAWFORDSVL +  SNOW      23  19  86 CALM      30.36S VSB 1/2
GREENCASTLE +  LGT SNOW  25  21  86 CALM      30.36S VSB 1
LAFAYETTE      SNOW      21  19  92 CALM      30.38R VSB 1/2
TERRE HAUTE    LGT SNOW  27  24  89 CALM      30.38S FOG

$$

INZ030>032-037>040-046>048-054>057-064-065-011500-
CENTRAL INDIANA

CITY           SKY/WX    TMP DP  RH WIND       PRES   REMARKS
CP ATTERBURY + LGT SNOW  28  27  93 CALM      30.38S
FRANKFORT +    LGT SNOW  24  24 100 CALM      30.38R VSB 3/4
GREENWOOD *+   CLOUDY    27  23  86 CALM      30.37S VSB 1
INDIANAPOLIS   SNOW      25  22  88 CALM      30.36R VSB 1/2
-EAGLE CREEK   SNOW      24  23  96 CALM      30.36S VSB 1/2
KOKOMO *+        N/A     21  18  86 CALM      30.37S VSB 3/4
MARION +       LGT SNOW  21  19  91 CALM      30.37S VSB 3/4
MT COMFORT *+  CLOUDY    25 N/A N/A CALM      30.37S VSB 3/4
SHELBYVILLE    LGT SNOW  29  25  85 CALM      30.36S VSB 3/4
ZIONSVILLE +   SNOW      25  22  87 CALM      30.36S VSB 1/2

$$

INZ033-034-041-042-049-050-058-059-011500-
EAST CENTRAL INDIANA

CITY           SKY/WX    TMP DP  RH WIND       PRES   REMARKS
MUNCIE         SNOW      26  24  92 S5        30.36S VSB 1/2 WCI  20

$$

INZ060-061-067>069-081>083-085>088-011500-
SOUTHWEST INDIANA

CITY           SKY/WX    TMP DP  RH WIND       PRES   REMARKS
EVANSVILLE     CLOUDY    33  27  78 VRB3      30.37R
HUNTINGBURG *+ CLOUDY    32  27  80 CALM      30.36S
WASHINGTON +   SNOW      32  29  88 CALM      30.36S VSB 1/2

$$

INZ062-063-066-070>080-084-089>092-011500-
SOUTH CENTRAL AND SOUTHEAST INDIANA

CITY           SKY/WX    TMP DP  RH WIND       PRES   REMARKS
BLOOMINGTON    LGT SNOW  29  27  92 N3        30.35S VSB 3/4
NORTH VERNON + LGT SNOW  32  32 100 CALM      30.37S
SEYMOUR +      LGT SNOW  32  30  93 CALM      30.36F

$$




USA.gov is the U.S. government's official web portal to all federal, state and local government web resources and services.